阿斯特拉 2B星 (ASTRA 2B)

导读

ASTRA 2B是由SES(欧洲卫星公司)运营的通信卫星,于格林尼治标准时间2000年9月14日8时成功发射。该卫星定点于地球静止轨道28.2°E,主要为欧洲地区提供广播电视和通信传输服务,替换老化的ASTRA 1B卫星,增强了SES在欧洲的卫星广播容量,支持多路数字电视信号传输,为欧洲家庭提供稳定的卫星电视接入服务,服役期间显著提升了欧洲卫星通信覆盖能力与服务质量。

Basic Information
目录编号:
26494
目录名称:
ASTRA 2B
国际标识:
2000-054A
轨道中心:
EARTH
卫星名称:
阿斯特拉 2B星
卫星全名:
阿斯特拉 2B星 (ASTRA 2B)
卫星状态:
在轨 (已飞行9407 天)
发射日期:
2000-09-14 UTC
国别 :
(SES)
星等 :
--
Orbit Information
数据来源 国际轨道数据 AOE轨道数据
星历时间 2026-06-17T02:23:07+0800
20小时前
查看轨道信息
2026-06-17T03:00:00+0800
19小时前
查看轨道信息
半长轴 42549.688km 42549.831km
偏心率 0.0011254 0.0011254
轨道倾角 9.586° 9.586°
近地点辐角 160.733° 161.022°
升交点赤经 56.140° 56.141°
平近点角 13.948° 22.773°
近地点 36123.665km 36123.808km
远地点 36219.437km 36219.58km
周期 1455.809分钟 1455.816分钟
每日圈数 0.989141 0.989136
Detailed Information
卫星平台:
HS-376HP
平衡模式:
三轴稳定
覆盖范围:
全球
运营商:
欧洲卫星公司
运营商所在国:
卢森堡
制造商(研发单位):
阿斯特里姆
制造商所在国:
法国大都会
使用方式:
暂无
Satellite Introduction
阿斯特拉卫星是由SES阿斯特拉运营的商业通信卫星,主要提供电视直播到户业务。Astra卫星包括三个系列共19颗卫星,分别定点在三个不同轨位:Astra-1系列包括十三颗卫星,定点东经19.2度;Astra-2系列包括4颗卫星,定点东经28.2度;Astra-3系列包括2颗卫星,定点东经23.5度。该卫星已退役。
2D Orbit Map
3D Orbit Map
Orbit Altitude Analysis Chart
Orbit Inclination Analysis Chart
Orbit Comprehensive Analysis Chart
View Comprehensive Chart